Powrót do katalogu

COSMOS 1275 DEB

AktywnyPO
NORAD 13799·DEBRIS·🇷🇺 Russia

Wystrzelony Jun 4, 1981 z Plesetsk Cosmodrome

Loading…

Następne Przeloty (najbliższe 24 godziny)

TLE

ŚwieżeSource: Space-Track

Epoka: Sep 14, 2026, 10:24 UTC

1 13799U 81053GT  26257.43399469  .00000677  00000-0  62182-3 0  9997
2 13799  83.1307 286.1439 0087013 231.9683 194.5168 13.79875524196312

Śledź COSMOS 1275 DEB w czasie rzeczywistym z AllMySat

Download on the App Store